Prerov, Czech Republic

7:31 PM CET on March 25, 2017 (GMT +0100)
Prerov

Weather History for LKPO - September, 2013

Change the Weather History Date:

Thursday, September 19, 2013

  Actual Average Record
Temperature  
Mean Temperature 54 °F -  
Max Temperature 59 °F - - ()
Min Temperature 46 °F - - ()
Degree Days  
Heating Degree Days 12    
Growing Degree Days 4 (Base 50)    
Moisture  
Dew Point 45 °F    
Average Humidity 80    
Maximum Humidity 94    
Minimum Humidity 59    
Precipitation  
Precipitation 0.00 in - - ()
Sea Level Pressure  
Sea Level Pressure 29.76 in    
Wind  
Wind Speed 6 mph ()    
Max Wind Speed 17 mph    
Max Gust Speed 24 mph    
Visibility 5.7 miles    
Events      
T = Trace of Precipitation, MM = Missing Value Source: Averaged Metar Reports

Daily Weather History Graph

Daily Weather History Graph

Search for Another Location

Airport or City:

Trip Planner

Search our weather history database for the weather conditions in past years. The results will help you decide how hot, cold, wet, or windy it might be!

Date:

Astronomy

Sep. 19, 2013 Rise Set
Actual Time 6:32 AM CEST 6:54 PM CEST
Civil Twilight 6:00 AM CEST 7:26 PM CEST
Nautical Twilight 5:22 AM CEST 8:04 PM CEST
Astronomical Twilight 4:42 AM CEST 8:43 PM CEST
Moon 6:36 PM CEST (9/19) 6:24 AM CEST (9/19)
Length of Visible Light 13h 26m
Length of Day
12h 22m
Full, 100% of the Moon is Illuminated
Sep 19
Full
Sep 19
Full
Sep 27
Last Quarter
Oct 5
New
Oct 12
First Quarter

Hourly Weather History & Observations

Time (CEST) Temp. Dew Point Humidity Pressure Visibility Wind Dir Wind Speed Gust Speed Precip Events Conditions
12:00 AM 51.8 °F 50.0 °F 94% 29.53 in 4.3 mi Calm Calm - N/A   Mostly Cloudy
1:00 AM 51.8 °F 50.0 °F 94% 29.56 in 3.7 mi WSW 3.5 mph - N/A   Overcast
2:00 AM 51.8 °F 50.0 °F 94% 29.59 in 4.3 mi WNW 3.5 mph - N/A   Mostly Cloudy
3:00 AM 50.0 °F 48.2 °F 94% 29.59 in 4.3 mi Variable 2.3 mph - N/A   Mostly Cloudy
4:00 AM 48.2 °F 46.4 °F 93% 29.62 in - WSW 3.5 mph - N/A   Clear
5:00 AM 48.2 °F 46.4 °F 93% 29.65 in - WNW 9.2 mph - N/A   Clear
6:00 AM 48.2 °F 44.6 °F 87% 29.65 in - WNW 9.2 mph - N/A   Clear
7:00 AM 48.2 °F 44.6 °F 87% 29.68 in - WNW 10.4 mph - N/A   Clear
8:00 AM 48.2 °F 46.4 °F 93% 29.74 in 6.2 mi NW 8.1 mph - N/A   Mostly Cloudy
9:00 AM 50.0 °F 44.6 °F 82% 29.74 in 6.2 mi NW 8.1 mph - N/A   Mostly Cloudy
10:00 AM 51.8 °F 46.4 °F 82% 29.77 in 6.2 mi NW 9.2 mph - N/A   Mostly Cloudy
11:00 AM 53.6 °F 44.6 °F 72% 29.77 in 6.2 mi NNW 12.7 mph - N/A   Mostly Cloudy
12:00 PM 55.4 °F 44.6 °F 67% 29.80 in 6.2 mi NW 15.0 mph - N/A   Mostly Cloudy
1:00 PM 55.4 °F 42.8 °F 63% 29.80 in 6.2 mi NW 17.3 mph - N/A   Mostly Cloudy
2:00 PM 57.2 °F 44.6 °F 63% 29.80 in 6.2 mi NW 15.0 mph - N/A   Mostly Cloudy
3:00 PM 59.0 °F 44.6 °F 59% 29.80 in 6.2 mi NW 11.5 mph - N/A   Scattered Clouds
4:00 PM 57.2 °F 42.8 °F 59% 29.83 in 6.2 mi NW 6.9 mph - N/A   Mostly Cloudy
5:00 PM 53.6 °F 42.8 °F 67% 29.83 in 6.2 mi WNW 13.8 mph 24.2 mph N/A   Mostly Cloudy
6:00 PM 53.6 °F 44.6 °F 72% 29.86 in 6.2 mi WNW 11.5 mph - N/A   Scattered Clouds
7:00 PM 51.8 °F 42.8 °F 71% 29.86 in - NW 5.8 mph - N/A   Clear
8:00 PM 48.2 °F 42.8 °F 82% 29.89 in 6.2 mi WNW 4.6 mph - N/A   Scattered Clouds
9:00 PM 48.2 °F 42.8 °F 82% 29.92 in - WSW 5.8 mph - N/A   Clear
10:00 PM 48.2 °F 42.8 °F 82% 29.92 in 6.2 mi West 3.5 mph - N/A   Mostly Cloudy
11:00 PM 46.4 °F 42.8 °F 87% 29.95 in - Calm Calm - N/A   Clear